Location: L�Ave Maria
(50.7161°N, 1.5911°E)
Time: 12:43:32
(UTC+00:00)

IRIDIUM 106 - Pass Details

Date: 10 July 2020
Orbit: 776 x 779 km, 86.4° (Epoch: 07 August)

Event Time Altitude Azimuth Distance (km) Brightness Sun altitude
Exits shadow 22:53:00 25° 168° (SSE) 1,518 5.2 -15.8°
Maximum altitude 22:56:01 70° 90° (E) 832 4.4 -15.9°
Drops below altitude 10° 23:01:14 10° 8° (N) 2,344 7.9 -16.1°
Sets 23:03:36 0° 6° (N) 3,275 8.9 -16.2°
